Regional Weather Roundup
Issued by NWS Wakefield, VA

Home | Current Version | Previous Version | Graphics & Text | Print | Product List | Glossary On
Versions: 1 2 3 4 5 6 7 8 9 10 11 12 13 14 15 16 17 18 19 20 21 22 23 24 25 26 27 28 29 30 31 32 33 34 35 36 37 38 39 40 41 42 43 44 45 46 47 48 49 50
000
ASUS41 KAKQ 082215
RWRAKQ

REGIONAL WEATHER ROUNDUP
NATIONAL WEATHER SERVICE WAKEFIELD VA
500 PM EST THU DEC 08 2016

Note: "fair" indicates few or no clouds below 12,000 feet with no
significant weather and/or obstructions to visibility. * = Denotes
station may not report precipitation (e.g., rain,snow,etc.),
thunder or fog.

VAZ042-051-052>054-056-082300-
NORTHERN VIRGINIA

CITY           SKY/WX    TMP DP  RH WIND       PRES   REMARKS
WASH NATIONAL  MOCLDY    45  14  28 NW15G23   30.07R
DULLES         PTCLDY    41  15  35 NW16      30.07R
FORT BELVOIR   PTCLDY    45  16  31 NW17      30.06R
QUANTICO       CLOUDY    45  19  35 NW10      30.08R
FREDERICKSBRG* CLOUDY    45  26  46 W9        30.07R
STAFFORD*      PTCLDY    43  21  41 NW8       30.11R
WARRENTON      CLOUDY    42   9  25 NW6       30.07R
CULPEPER*      PTCLDY    44  15  32 CALM      30.09R
MANASSAS*      NOT AVBL
LEESBURG*      CLEAR     41  21  45 W13G24    30.08R
WINCHESTER     CLEAR     36  14  41 NW18      30.08R
FRONT ROYAL*   FAIR      37  16  41 W3        30.07R
LURAY*         FAIR      39  18  41 NW13G20   30.08R
$$

VAZ048-049-060>072-079>083-082300-
CENTRAL AND SOUTH CENTRAL VIRGINIA

CITY           SKY/WX    TMP DP  RH WIND       PRES   REMARKS
RICHMOND       MOCLDY    46  18  32 NW8       30.08R
CHESTERFIELD*  FAIR      46  14  27 NW9       30.10R
PETERSBURG*    CLEAR     45  19  36 W8        30.10R
HANOVER        CLOUDY    45  20  36 W6        30.09R
TAPPAHANNOCK*  CLOUDY    47  18  32 W6        30.07R
QUINTON*       FAIR      46  20  35 NW9       30.07R
CHARLOTTSVILLE CLEAR     44  14  29 NW5       30.08R
GORDONSVILLE*  FAIR      44  15  31 NW7       30.07R
ORANGE*          N/A     43  21  42 CALM      30.09R
LOUISA*        CLOUDY    45  28  53 W3        30.06R
BUMPASS*       FAIR      41  22  47 W6        30.07R
FARMVILLE*     CLOUDY    43  24  47 SW3       30.10R
CREWE*         FAIR      45  21  38 W6        30.10R
FORT PICKETT*  FAIR      43  12  27 W6        30.10R
CHASE CITY*    FAIR      44  19  37 W3        30.12R
CLARKSVILLE*   FAIR      43  23  45 W3        30.12R
SOUTH HILL*    PTCLDY    44  22  42 NW3       30.17R
LAWRENCEVILLE* FAIR      45  21  39 W3        30.10R
EMPORIA*       PTCLDY    45  25  45 W7        30.11R
$$

VAZ088>098-082300-
SOUTHEAST VIRGINIA

CITY           SKY/WX    TMP DP  RH WIND       PRES   REMARKS
NORFOLK        MOCLDY    47  40  76 CALM      30.05R
VIRGINIA BEACH CLOUDY    44  39  82 NW3       30.05R
NORFOLK NAVAL  MOCLDY    46  39  76 N5        30.07R
WEST POINT*    CLEAR     46  22  39 NW8       30.08R
SALUDA*        FAIR      40  40  99 CALM      30.05R
NEWPORT NEWS   PTCLDY    43  39  86 CALM      30.05R
LANGLEY AFB    PTCLDY    45  40  84 CALM      30.04R
FORT EUSTIS    CLEAR     47  33  60 NW8       30.03R
WILLIAMSBURG*  CLEAR     48  28  46 NW8       30.06R
HR EXEC AP*    FAIR      45  36  70 CALM      30.05R
FRANKLIN*      CLOUDY    47  28  47 W9        30.08R
US460-WAKEFLD  PTCLDY    45  32  60 W5        30.07R
$$

VAZ020-022-025-037-045-082300-
WEST CENTRAL AND SOUTHWEST VIRGINIA

CITY           SKY/WX    TMP DP  RH WIND       PRES   REMARKS
STAUNTON*      CLEAR     37  12  35 NW7       30.10R
WAYNESBORO*    FAIR      38   8  28 W8        30.07R
HOT SPRINGS VA CLEAR     27   3  36 W16G28    29.98R WCI  14
LYNCHBURG      PTCLDY    42   8  24 W9G17     30.12R
DANVILLE       PTCLDY    44  21  40 W8        30.14R
SOUTH BOSTON*  FAIR      44  19  36 CALM      30.13R
MARTINSVILLE   CLOUDY    41  13  31 NW6       30.17R
ROANOKE        PTCLDY    41   9  26 NW18G28   30.14R
BLACKSBURG     CLEAR     35  14  41 W12G17    30.14S
DUBLIN*        CLEAR     36  13  39 W10G21    30.15R
MARION*        CLEAR     34  10  37 W18G30    30.16R WCI  23
HILLSVILLE*    CLEAR     34   6  31 NW16G26   30.10R WCI  24
RICHLANDS*     FAIR      31  16  52 NW8G18    30.17R
WISE*          PTCLDY    32  14  47 W13       30.21R WCI  22
ABINGDON*      CLEAR     38   9  30 N9        30.20R
$$

MDZ021>025-VAZ099-100-082300-
SOUTHERN MARYLAND AND THE DELMARVA PENINSULA

CITY           SKY/WX    TMP DP  RH WIND       PRES   REMARKS
PATUXENT RIVER MOCLDY    45  26  47 W9        30.04R
BAY BRIDGE APT CLOUDY    45  21  39 NW13      30.03R
LEONARDTOWN    NOT AVBL
DOVER          CLOUDY    42  26  51 W8        29.99R
GEORGETOWN     CLOUDY    44  25  47 W5        30.02R
EASTON         MOCLDY    45  19  36 NW7       30.06R
CAMBRIDGE      CLOUDY    43  23  45 W6        30.03R
SALISBURY      PTCLDY    41  36  82 W6        30.03R
OCEAN CITY     PTCLDY    41  36  82 W6        30.03R
WALLOPS ISLAND PTCLDY    40  38  93 W3        30.04R
ACCOMACK*      MOCLDY    42  40  91 CALM      30.04R
$$

NCZ012>017-030>032-082300-
NORTH CENTRAL AND EASTERN NORTH CAROLINA

CITY           SKY/WX    TMP DP  RH WIND       PRES   REMARKS
ROANOKE RAPIDS FAIR      46  27  46 W6        30.10R
RALEIGH        CLOUDY    48  20  32 NW8       30.13R
ELIZABETH CITY PTCLDY    47  38  71 W8        30.07R
AHOSKIE*       PTCLDY    46  29  50 CALM      30.09R
EDENTON*       PTCLDY    51  38  60 NW9       30.08R
CURRITUCK*     PTCLDY    49  39  67 W3        30.07R
KILL DEVIL HLS PTCLDY    50  43  78 NW7       30.04R
MANTEO         PTCLDY    50  40  68 NW12      30.05R
CAPE HATTERAS  PTCLDY    53  44  71 NW10G21   30.05
TARBORO*       NOT AVBL
GOLDSBORO      MOCLDY    50  22  33 NW8       30.11R
WASHINGTON     CLOUDY    49  27  43 NW8G16    30.11R
GREENVILLE     CLOUDY    50  27  40 CALM      30.12R
NEW BERN       MOCLDY    51  29  42 NW10      30.11R
WILMINGTON     PTCLDY    52  39  61 N10       30.10R
$$

VAZ048-082300-
ELSEWHERE

CITY           SKY/WX    TMP DP  RH WIND       PRES   REMARKS
HARRISBURG PA  PTCLDY    37  20  50 NW17G24   30.02R
BALTIMORE      PTCLDY    42  15  33 W14G23    30.04R
ANNAPOLIS      MOCLDY    47  18  31 W7        30.04R
ANDREWS AFB    PTCLDY    44  14  29 W13G25    30.04R
PHILADELPHIA   MOCLDY    43  18  36 NW8       29.99R
HENDERSON NC   CLOUDY    43  18  36 W5        30.13R
GREENSBORO     CLOUDY    44  21  40 W8        30.15R
ROCKY MOUNT    CLOUDY    48  24  39 W7        30.12R
$$

VAZ100-082300-
MARINE

STATION/POSITION TIME  TEMP    WIND        PRES    WAVE   SWELL
                       AIR SEA DIR/SP/G            HT/PER HT/PER
                 (UTC) (F)     (DEG/KT/KT) (MB)    (FT/S) (FT/S)
BRANDYWINE LGT   2148   45     290/ 21/ 25   N/A
CAPE MAY NJ      2148   45 48  290/ 17/ 21 1015.1R
LEWES DE         2148   44 48  270/  8/ 11 1015.9R
OCEAN-CITY-INLET 2142   43 50  290/  5/  7 1016.7R
WACHAPREAGUE VA  2148   43 49  270/  3/  4 1017.2R
THOMAS POINT MD  2200   46 48  290/ 18/ 22   N/A
GOOSES REEF MD   2150   47     280/ 10/ 14 1017.8R
COVE POINT MD    2148   45     300/  7/ 14 1017.7R
SOLOMONS ISLAND  2142   46 51  270/  8/ 11   N/A
BISHOPS HEAD MD  2148   47 47  300/ 17/ 20 1017.4R
PINEY POINT MD   2148          320/ 19/ 21   N/A
POTOMAC MD       2150   48     320/ 19/ 25 1016.8R
CAMBRIDGE MD     2148   45 47  270/  7/  9 1016.1R
LEWISETTA VA     2148   47 49  300/ 10/ 12 1017.4R
RAPPAHANNOCK LGT 2148          310/  5/  6 1017.9R
STINGRAY PT      2150   45     310/  4/  6 1017.8R
YORK RVR RNG VA  2148   47      10/  4/  5 1016.9R
YORKTOWN VA      2148   48 51  270/  3/  4 1017.1R
JAMESTOWN VA     2150   50     310/ 12/ 14   N/A
DOMINION TERM VA 2148   50     280/  8/  9 1017.4R
KIPTOPEKE VA     2148      52   10/  4/  6   N/A
CHES BAY BRIDGE  2148   47 52  340/  8/ 10 1017.3R
CAPE HENRY VA    2148   47     330/ 11/ 12   N/A
WILLOUBY STN VA  2148   47      20/  3/  4 1018.3R
S CRANEY ISL VA  2148   48     280/  3/  4 1017.2R
CAPE HENRY BUOY  2142      54                N/A     3/ 9
CAPE CHARLES BUO 2156      54                N/A     3/10   2/11
OFFSHORE WE BUOY 2151      55                N/A     4/ 8
64NM E OF VA BCH 2150   51 59  340/ 21/ 25 1015.5R   4/ 8   2/ 8
DUCK PIER NC     2148   50 53  320/ 13/ 17 1017.1R
44100 DUCK FRF   2135      56                N/A     4/11   2/11
OREGON INLET NC  2142   51 55  300/ 14/ 19 1017.3R
HATTERAS NC      2148   54 60  310/ 20/ 22 1017.0R
DIAMOND SHLS NC  2150   57 77  310/ 19/ 23 1016.5R   5/10   3/10
CAPE LOOKOUT NC  2100   55     330/ 12/ 13 1016.8R
$$



USA.gov is the U.S. government's official web portal to all federal, state and local government web resources and services.